Weather History for Danville, KY

Change the Weather History Date:

Sunday, October 6, 2013

  Actual Average (KLEX) Record (KLEX)
Temperature  
Mean Temperature 64 °F 60 °F  
Max Temperature 77 °F 71 °F 93 °F (1941)
Min Temperature 51 °F 50 °F 30 °F (1980)
Degree Days  
Heating Degree Days 1 6  
Month to date heating degree days 33  
Since 1 July heating degree days 87  
Cooling Degree Days 0 1  
Month to date cooling degree days 10  
Year to date cooling degree days 1173  
Growing Degree Days 14 (Base 50)    
Moisture  
Dew Point 61 °F    
Average Humidity 90    
Maximum Humidity 100    
Minimum Humidity 69    
Precipitation  
Precipitation 0.00 in 0.10 in 2.18 in (2013)
Month to date precipitation 0.59  
Year to date precipitation 35.17  
Snow  
Snow 0.00 in 0.00 in 0.00 in ()
Month to date snowfall 0.0  
Since 1 July snowfall 0.0  
Since 1 September snowfall 0.0  
Snow Depth -    
Sea Level Pressure  
Sea Level Pressure 29.90 in    
Wind  
Wind Speed 6 mph (SSW)    
Max Wind Speed 16 mph    
Max Gust Speed 24 mph    
Visibility 8 miles    
Events Rain    
T = Trace of Precipitation, MM = Missing Value Source: NWS Daily Summary

Daily Weather History Graph

Daily Weather History Graph

Search for Another Location

Airport:

Trip Planner

Search our weather history database for the weather conditions in past years. The results will help you decide how hot, cold, wet, or windy it might be!

Date:

Astronomy

Oct. 06, 2013 Rise Set
Actual Time 7:39 AM EDT 7:14 PM EDT
Civil Twilight 7:13 AM EDT 7:40 PM EDT
Nautical Twilight 6:42 AM EDT 8:10 PM EDT
Astronomical Twilight 6:12 AM EDT 8:41 PM EDT
Moon 9:20 AM EDT (10/6) 8:16 PM EDT (10/6)
Length of Visible Light 12h 27m
Length of Day
11h 35m
Waxing Crescent, 3% of the Moon is Illuminated
Oct 6
Waxing Crescent
Oct 11
First Quarter
Oct 18
Full
Oct 26
Last Quarter
Nov 3
New

Hourly Weather History & Observations

Time (EDT) Temp. Dew Point Humidity Pressure Visibility Wind Dir Wind Speed Gust Speed Precip Events Conditions
12:15 AM 66.2 °F 64.4 °F 94% 29.98 in 10.0 mi SSW 3.5 mph - N/A   Clear
12:35 AM 66.2 °F 64.4 °F 94% 29.98 in 10.0 mi SW 3.5 mph - N/A   Clear
12:55 AM 66.2 °F 64.4 °F 94% 29.97 in 10.0 mi SSW 3.5 mph - N/A   Clear
1:15 AM 66.2 °F 64.4 °F 94% 29.97 in 10.0 mi SSW 4.6 mph - N/A   Clear
1:35 AM 66.2 °F 64.4 °F 94% 29.96 in 10.0 mi SSW 5.8 mph - N/A   Clear
1:55 AM 66.2 °F 64.4 °F 94% 29.96 in 10.0 mi SSW 4.6 mph - N/A   Clear
2:15 AM 68.0 °F 62.6 °F 83% 29.96 in 10.0 mi SSW 3.5 mph - N/A   Clear
2:35 AM 68.0 °F 62.6 °F 83% 29.96 in 10.0 mi SSW 3.5 mph - N/A   Clear
2:55 AM 68.0 °F 62.6 °F 83% 29.94 in 10.0 mi South 3.5 mph - N/A   Clear
3:15 AM 64.4 °F 62.6 °F 94% 29.94 in 10.0 mi Calm Calm - N/A   Clear
3:35 AM 64.4 °F 62.6 °F 94% 29.93 in 10.0 mi Calm Calm - N/A   Clear
3:55 AM 64.4 °F 62.6 °F 94% 29.93 in 10.0 mi South 3.5 mph - N/A   Clear
4:15 AM 64.4 °F 62.6 °F 94% 29.93 in 10.0 mi South 3.5 mph - N/A   Clear
4:35 AM 62.6 °F 62.6 °F 100% 29.92 in 10.0 mi Calm Calm - N/A   Clear
4:55 AM 64.4 °F 62.6 °F 94% 29.92 in 10.0 mi SW 3.5 mph - N/A   Clear
5:15 AM 66.2 °F 62.6 °F 88% 29.92 in 10.0 mi South 6.9 mph - N/A   Mostly Cloudy
5:35 AM 66.2 °F 62.6 °F 88% 29.92 in 10.0 mi South 8.1 mph - N/A   Mostly Cloudy
5:55 AM 66.2 °F 62.6 °F 88% 29.92 in 10.0 mi South 6.9 mph - N/A   Scattered Clouds
6:15 AM 66.2 °F 62.6 °F 88% 29.92 in 10.0 mi South 5.8 mph - N/A   Clear
6:35 AM 66.2 °F 62.6 °F 88% 29.91 in 10.0 mi South 8.1 mph - N/A   Clear
6:55 AM 66.2 °F 62.6 °F 88% 29.92 in 10.0 mi South 5.8 mph - N/A   Clear
7:15 AM 66.2 °F 62.6 °F 88% 29.92 in 10.0 mi South 8.1 mph - N/A   Scattered Clouds
7:35 AM 66.2 °F 62.6 °F 88% 29.92 in 10.0 mi South 6.9 mph - N/A   Scattered Clouds
7:55 AM 64.4 °F 62.6 °F 94% 29.92 in 10.0 mi South 6.9 mph - N/A   Scattered Clouds
8:15 AM 66.2 °F 62.6 °F 88% 29.92 in 10.0 mi South 8.1 mph - N/A   Scattered Clouds
8:35 AM 68.0 °F 62.6 °F 83% 29.92 in 10.0 mi South 6.9 mph - N/A   Mostly Cloudy
8:55 AM 68.0 °F 62.6 °F 83% 29.93 in 10.0 mi SSW 9.2 mph - N/A   Mostly Cloudy
9:15 AM 69.8 °F 62.6 °F 78% 29.93 in 10.0 mi SSW 12.7 mph 18.4 mph N/A   Scattered Clouds
9:35 AM 71.6 °F 62.6 °F 73% 29.92 in 10.0 mi SSW 10.4 mph 17.3 mph N/A   Scattered Clouds
9:55 AM 71.6 °F 62.6 °F 73% 29.93 in 10.0 mi SSW 12.7 mph 17.3 mph N/A   Scattered Clouds
10:15 AM 69.8 °F 62.6 °F 78% 29.95 in 10.0 mi WSW 4.6 mph - N/A   Overcast
10:35 AM 69.8 °F 64.4 °F 83% 29.94 in 7.0 mi WSW 4.6 mph - N/A Rain Rain
10:55 AM 68.0 °F 64.4 °F 88% 29.93 in 4.0 mi SW 4.6 mph - N/A Rain Rain
11:15 AM 66.2 °F 64.4 °F 94% 29.92 in 2.0 mi South 5.8 mph - N/A Rain Heavy Rain
11:35 AM 66.2 °F 64.4 °F 94% 29.91 in 7.0 mi South 6.9 mph - N/A Rain Light Rain
11:55 AM 68.0 °F 66.2 °F 94% 29.90 in 7.0 mi South 4.6 mph - N/A   Mostly Cloudy
12:15 PM 69.8 °F 66.2 °F 88% 29.90 in 10.0 mi South 11.5 mph - N/A   Scattered Clouds
12:35 PM 73.4 °F 68.0 °F 83% 29.89 in 10.0 mi SSW 10.4 mph 17.3 mph N/A   Scattered Clouds
12:55 PM 73.4 °F 66.2 °F 78% 29.88 in 10.0 mi South 11.5 mph 16.1 mph N/A   Mostly Cloudy
1:15 PM 73.4 °F 66.2 °F 78% 29.86 in 10.0 mi South 10.4 mph - N/A   Overcast
1:35 PM 75.2 °F 66.2 °F 73% 29.84 in 10.0 mi South 13.8 mph 24.2 mph N/A   Overcast
1:55 PM 77.0 °F 66.2 °F 69% 29.83 in 10.0 mi South 11.5 mph 21.9 mph N/A   Mostly Cloudy
2:15 PM 77.0 °F 66.2 °F 69% 29.82 in 10.0 mi South 12.7 mph 21.9 mph N/A   Mostly Cloudy
2:35 PM 71.6 °F 68.0 °F 88% 29.82 in 4.0 mi SW 8.1 mph - N/A Rain Light Rain
2:55 PM 73.4 °F 68.0 °F 83% 29.82 in 10.0 mi SSW 9.2 mph - N/A Rain Light Rain
3:15 PM 71.6 °F 68.0 °F 88% 29.83 in 10.0 mi West 16.1 mph 23.0 mph N/A   Overcast
3:35 PM 68.0 °F 64.4 °F 88% 29.84 in 1.2 mi West 9.2 mph 18.4 mph N/A Rain Heavy Rain
3:55 PM 68.0 °F 66.2 °F 94% 29.83 in 7.0 mi SW 5.8 mph 17.3 mph N/A Rain Rain
4:15 PM 68.0 °F 66.2 °F 94% 29.83 in 10.0 mi SW 8.1 mph - N/A Rain Light Rain
4:35 PM 68.0 °F 64.4 °F 88% 29.82 in 7.0 mi SW 5.8 mph - N/A Rain Light Rain
4:55 PM 66.2 °F 64.4 °F 94% 29.82 in 7.0 mi SSW 5.8 mph - N/A Rain Rain
5:15 PM 66.2 °F 64.4 °F 94% 29.81 in 2.5 mi South 8.1 mph - N/A Rain Rain
5:35 PM 64.4 °F 64.4 °F 100% 29.81 in 5.0 mi SW 5.8 mph - N/A Rain Heavy Rain
5:55 PM 62.6 °F 62.6 °F 100% 29.82 in 3.0 mi NW 12.7 mph 24.2 mph N/A Rain Heavy Rain
6:15 PM 60.8 °F 60.8 °F 100% 29.83 in 4.0 mi WNW 5.8 mph - N/A Rain Heavy Rain
6:35 PM 60.8 °F 59.0 °F 94% 29.84 in 3.0 mi NW 11.5 mph 19.6 mph N/A Rain Heavy Rain
6:55 PM 59.0 °F 57.2 °F 94% 29.85 in 7.0 mi WNW 10.4 mph 17.3 mph N/A Rain Light Rain
7:15 PM 57.2 °F 55.4 °F 94% 29.86 in 10.0 mi WNW 13.8 mph 21.9 mph N/A Rain Light Rain
7:35 PM 55.4 °F 53.6 °F 94% 29.89 in 2.5 mi SW 6.9 mph - N/A Rain Heavy Rain
7:55 PM 53.6 °F 51.8 °F 94% 29.87 in 10.0 mi NW 4.6 mph - N/A Rain Light Rain
8:15 PM 53.6 °F 53.6 °F 100% 29.87 in 10.0 mi WSW 3.5 mph - N/A   Overcast
8:35 PM 53.6 °F 53.6 °F 100% 29.87 in 7.0 mi West 3.5 mph - N/A Rain Rain
8:55 PM 53.6 °F 53.6 °F 100% 29.88 in 7.0 mi West 6.9 mph - N/A Rain Rain
9:15 PM 53.6 °F 51.8 °F 94% 29.90 in 10.0 mi SW 6.9 mph - N/A Rain Light Rain
9:35 PM 53.6 °F 51.8 °F 94% 29.90 in 4.0 mi West 6.9 mph - N/A Rain Heavy Rain
9:55 PM 53.6 °F 51.8 °F 94% 29.90 in 4.0 mi Calm Calm - N/A Rain Heavy Rain
10:15 PM 51.8 °F 51.8 °F 100% 29.90 in 5.0 mi Calm Calm - N/A Rain Light Rain
10:35 PM 51.8 °F 51.8 °F 100% 29.91 in 10.0 mi SW 5.8 mph - N/A   Overcast
10:55 PM 51.8 °F 51.8 °F 100% 29.92 in 10.0 mi SW 4.6 mph - N/A Rain Light Rain
11:15 PM 51.8 °F 51.8 °F 100% 29.91 in 7.0 mi South 4.6 mph - N/A Rain Rain
11:35 PM 51.8 °F 51.8 °F 100% 29.92 in 10.0 mi SW 6.9 mph - N/A Rain Light Rain
11:55 PM 51.8 °F 51.8 °F 100% 29.90 in 5.0 mi SSW 3.5 mph - N/A Rain Heavy Rain